Tracking 20083 objects as of 12-Dec-2019
HD Live streaming from Space Station
objects crossing your sky now

COSMOS 2251 DEB

Track COSMOS 2251 DEB now!
10-day predictions


NORAD ID: 36071
Int'l Code: 1993-036AYJ
Perigee: 714.5 km
Apogee: 758.5 km
Inclination: 74.0 °
Period: 99.4 minutes
Semi major axis: 7107 km
RCS: 0.009 m2 (small)
Launch date: June 16, 1993
Source: Commonwealth of Independent States (former USSR) (CIS)
Launch site: PLESETSK MISSILE AND SPACE COMPLEX (PKMTR)

Note: This is SATELLITE DEBRIS
aabbcc
Your satellite tracking list
Your tracking list is empty




NASA's NSSDC Master Catalog

Two Line Element Set (TLE):
1 36071U 93036AYJ 19346.18979857  .00000945  00000-0  25560-3 0  9994
2 36071  74.0346 268.3904 0030939 153.7733 206.5002 14.48871084555621
Source of the keplerian elements: AFSPC